Regional Weather Roundup
Issued by NWS

Home | Current Version | Previous Version | Text Only | Print | Product List | Glossary Off
Versions: 1 2 3 4 5 6 7 8 9 10 11 12 13 14 15 16 17 18 19 20 21 22 23 24 25 26 27 28 29 30 31 32 33 34 35 36 37 38 39 40 41 42 43 44 45 46 47 48 49 50

000
ASUS45 KABQ 211301
RWRNM
NEW MEXICO REGIONAL WEATHER ROUNDUP
NATIONAL WEATHER SERVICE ALBUQUERQUE NM
600 AM MST TUE NOV 21 2017

NOTE: "FAIR" MEANS FEW OR NO CLOUDS BELOW 12,000 FEET AGL WITH NO
       SIGNIFICANT WEATHER OR OBSTRUCTIONS TO VISION.

      THIS PRODUCT IS RELEASED AS TWO VERSIONS.  ONE VERSION NEAR
      THE TOP OF THE HOUR CONTAINING PRELIMINARY DATA FROM ALBUQUERQUE
      AND OTHER STATIONS.  A FINAL VERSION WITH ADDITIONAL DATA IS
      ISSUED ABOUT 10 MINUTES AFTER THE HOUR.

NMZ501-503-504-510>518-211400-
NORTHWEST PLATEAU/NORTHCENTRAL MOUNTAINS

CITY           SKY/WX    TMP DP  RH WIND       PRES   REMARKS
FARMINGTON     FAIR      27  11  51 E10       30.21S WCI  17
LOS ALAMOS     FAIR      36   2  23 CALM      30.21R
SANTA FE       FAIR      39   4  23 NW5       30.17R
TAOS           FAIR      21   3  45 NE7       30.24  WCI  12
ANGEL FIRE     FAIR      26  10  50 CALM      30.22R

$$
NMZ402-403-502-505>509-211400-
WESTCENTRAL MOUNTAINS/SOUTHWEST MOUNTAINS

CITY           SKY/WX    TMP DP  RH WIND       PRES   REMARKS
GALLUP         FAIR      23   6  48 E3        30.28R
GRANTS         FAIR      32   1  26 N9        30.26S WCI  24
SILVER CITY    FAIR      46  13  26 NW12      30.16R

$$
NMZ407-409-411-412-211400-
SOUTHERN DESERTS

CITY           SKY/WX    TMP DP  RH WIND       PRES   REMARKS
DEMING         FAIR      40  15  36 SW6       30.12R
LAS CRUCES     FAIR      42  14  31 CALM      30.11R
HOLLOMAN AFB   FAIR      48  13  24 N12       30.09R
ALAMOGORDO     FAIR      55   5  13 N14       30.08R
T OR C         FAIR      45   6  20 N7        30.15R

$$
NMZ519>523-211400-
CENTRAL VALLEYS/CENTRAL HIGHLANDS

CITY           SKY/WX    TMP DP  RH WIND       PRES   REMARKS
ALBUQUERQUE    FAIR      45   4  18 N13       30.19R
DOUBLE EAGLE   PTCLDY    39   7  26 W8        30.22R WCI  34
MORIARTY ARPT  FAIR      38   3  22 NW8       30.17R WCI  32
CLINES CORNERS FAIR      36   0  21 NW21      30.15R WCI  25
BELEN          FAIR      34   4  28 N3        30.21R
SOCORRO        FAIR      35   6  30 N8        30.19R WCI  28

$$
NMZ524>526-539-540-211400-
SOUTHCENTRAL MOUNTAINS

CITY           SKY/WX    TMP DP  RH WIND       PRES   REMARKS
RUIDOSO        FAIR      46  -2  13 NW17G26   30.16R

$$
NMZ527>531-211400-
NORTHEAST HIGHLANDS/NORTHEAST PLAINS

CITY           SKY/WX    TMP DP  RH WIND       PRES   REMARKS
LAS VEGAS      FAIR      45  14  28 N15G25    30.11R
RATON          FAIR      51  18  27 N10G21    30.06R
CLAYTON        FAIR      43  11  27 N12       30.00R

$$
NMZ532>537-211400-
EASTCENTRAL PLAINS

CITY           SKY/WX    TMP DP  RH WIND       PRES   REMARKS
SANTA ROSA     FAIR      46   6  19 W3        30.02R
TUCUMCARI      FAIR      39  11  31 W3        29.97R
CANNON AFB     FAIR      45   8  22 NW10      29.97R
CLOVIS AIRPORT FAIR      47  10  22 N16       29.95R

$$
NMZ028-029-538-211400-
SOUTHEAST PLAINS

CITY           SKY/WX    TMP DP  RH WIND       PRES   REMARKS
ROSWELL        FAIR      63   9  12 NW17G26   29.94R
ARTESIA        FAIR      41  18  38 W3        29.97R
CARLSBAD       FAIR      49  23  36 NW10      29.94R
HOBBS          CLEAR     55   3  12 NW16G22   29.91R


$$




USA.gov is the U.S. government's official web portal to all federal, state and local government web resources and services.